This demonstration page uses our WeatherBlox Daily Observations layout. Learn more.

41.55636, -103.73856

Hourly Observations for December 16, 2016

Temp ( °F °C ) Dew Point ( °F °C ) Humidity (%) Winds ( mph kmh ) Pressure ( in mb ) Visibility ( mi km ) Precip ( " mm )
12:01 am 00:01 Clear 20 -6.7 13 -10.6 74 74 NE 15 24 29.85 1011 10 16.0934 0 0
12:53 am 00:53 Clear 18 -7.8 10 -12.2 71 71 NNE 10 17 29.77 1008 10 16.0934 0 0
1:53 am 01:53 Clear 16 -8.9 9 -12.8 74 74 NE 13 20 29.79 1009 10 16.0934 0 0
2:53 am 02:53 Partly Cloudy 15 -9.4 8 -13.3 74 74 NE 9 15 29.8 1009 10 16.0934 0 0
3:53 am 03:53 Cloudy 16 -8.9 9 -12.8 74 74 NNE 8 13 29.78 1008 10 16.0934 0 0
4:53 am 04:53 Cloudy 16 -8.9 9 -12.8 74 74 NNE 10 17 29.77 1008 10 16.0934 0 0
5:53 am 05:53 Cloudy 15 -9.4 8 -13.3 74 74 NE 8 13 29.77 1008 10 16.0934 0 0
6:53 am 06:53 Cloudy with Light Snow 15 -9.4 8 -13.3 74 74 N 7 11 29.78 1009 9 14.48406 0 0.0254
7:53 am 07:53 Cloudy with Light Snow 14 -10 7 -13.9 73 73 NNE 8 13 29.77 1008 7 11.26538 0.02 0.508
8:09 am 08:09 Cloudy 14 -10 7 -13.9 73 73 NE 10 17 29.88 1012 10 16.0934 0 0.0254
8:35 am 08:35 Cloudy 14 -10 6 -14.4 71 71 NE 12 19 29.88 1012 10 16.0934 0 0.0254
8:53 am 08:53 Cloudy 14 -10 6 -14.4 71 71 ENE 12 19 29.75 1008 10 16.0934 0 0.0254
9:27 am 09:27 Cloudy 13 -10.6 6 -14.4 74 74 NNE 10 17 29.88 1012 10 16.0934 0 0
9:38 am 09:38 Cloudy 12 -11 5 -15 73 73 N 10 17 29.91 1013 10 16.0934 0 0
9:53 am 09:53 Cloudy 13 -10.6 5 -15 70 70 N 9 15 29.76 1008 10 16.0934 0 0
10:53 am 10:53 Cloudy 14 -10 5 -15 67 67 NE 8 13 29.72 1007 10 16.0934 0 0
11:53 am 11:53 Cloudy 14 -10 4 -15.6 64 64 NNW 8 13 29.71 1006 10 16.0934 0 0
12:20 pm 12:20 Cloudy with Light Snow 14 -10 5 -15 67 67 NNE 8 13 29.83 1010 2.5 4.02335 0 0
12:33 pm 12:33 Cloudy with Light Snow 14 -10 5 -15 67 67 N 9 15 29.83 1010 3 4.82802 0 0.0254
12:53 pm 12:53 Cloudy 14 -10 5 -15 67 67 N 10 17 29.69 1006 8 12.87472 0 0.0254
1:38 pm 13:38 Cloudy with Light Snow 12 -11 3 -16 67 67 NNE 12 19 29.83 1010 1.75 2.816345 0 0
1:53 pm 13:53 Cloudy with Light Snow 12 -11.1 5 -15 73 73 NNE 14 22 29.71 1006 1.25 2.011675 0.01 0.254
2:06 pm 14:06 Cloudy with Light Snow 12 -11 3 -16 67 67 NNE 13 20 29.85 1011 1.5 2.41401 0 0
2:20 pm 14:20 Cloudy with Light Snow 10 -12 3 -16 72 72 NNE 14 22 29.85 1011 2 3.21868 0 0
2:39 pm 14:39 Cloudy with Light Snow 10 -12.2 3 -16.1 73 73 N 13 20 29.85 1011 1.25 2.011675 0 0.0254
2:53 pm 14:53 Cloudy with Light Snow 10 -12.2 2 -16.7 69 69 N 13 20 29.74 1007 1 1.60934 0.01 0.254
3:20 pm 15:20 Cloudy with Light Snow 9 -13 1 -17 72 72 N 14 22 29.91 1013 2.5 4.02335 0 0
3:28 pm 15:28 Cloudy with Light Snow 9 -13 1 -17 72 72 N 10 17 29.91 1013 5 8.0467 0 0
3:53 pm 15:53 Cloudy 8 -13.3 0 -17.8 69 69 N 12 19 29.78 1009 9 14.48406 0 0.0254
4:53 pm 16:53 Cloudy 5 -15 -4 -20 66 66 NNE 15 24 29.8 1009 10 16.0934 0 0
5:53 pm 17:53 Cloudy 5 -15 -4 -20 66 66 NNE 14 22 29.83 1010 10 16.0934 0 0
6:31 pm 18:31 Cloudy with Light Snow 4 -15.6 -4 -20 69 69 N 10 17 30.06 1018 2 3.21868 0.01 0.254
6:42 pm 18:42 Cloudy with Light Snow 3 -16 -4 -20 72 72 NNW 10 17 30.06 1018 4 6.43736 0 0
6:53 pm 18:53 Cloudy with Haze 4 -15.6 -5 -20.6 66 66 NNW 10 17 29.93 1013 5 8.0467 0.01 0.254
7:14 pm 19:14 Cloudy with Light Snow 3 -16 -4 -20 72 72 NNW 15 24 30.15 1021 2 3.21868 0 0
7:21 pm 19:21 Cloudy with Light Snow 3 -16.1 -3 -19.4 76 76 N 12 19 30.12 1020 1.25 2.011675 0 0.0254
7:37 pm 19:37 Cloudy with Light Snow 4 -15.6 -3 -19.4 73 73 VRB 5 7 30.09 1019 2.5 4.02335 0 0.0254
7:44 pm 19:44 Cloudy with Light Snow 3 -16 -2 -19 78 78 W 6 9 30.15 1021 3 4.82802 0 0
7:53 pm 19:53 Cloudy with Light Snow 4 -15.6 -3 -19.4 73 73 Calm 29.96 1015 4 6.43736 0 0.0254
8:10 pm 20:10 Cloudy with Light Snow 3 -16 -4 -20 72 72 NNE 14 22 30.12 1020 1.75 2.816345 0 0
8:53 pm 20:53 Cloudy with Light Snow 2 -16.7 -6 -21.1 69 69 N 17 28 29.96 1014 1.5 2.41401 0.03 0.762
9:07 pm 21:07 Cloudy with Light Snow 2 -16.7 -6 -21.1 69 69 NNW 12 19 30.18 1022 3 4.82802 0 0.0254
9:19 pm 21:19 Cloudy with Light Snow 2 -16.7 -7 -21.7 65 65 NNW 15 24 30.18 1022 6 9.65604 0 0.0254
9:53 pm 21:53 Cloudy 1 -17.2 -8 -22.2 65 65 N 9 15 30.04 1017 10 16.0934 0 0.0254
10:53 pm 22:53 Cloudy with Light Snow 1 -17.2 -8 -22.2 65 65 N 18 30 30.07 1018 6 9.65604 0 0.0254
11:07 pm 23:07 Cloudy with Light Snow 1 -17.2 -8 -22.2 65 65 N 13 20 30.27 1025 2.5 4.02335 0 0.0254
11:18 pm 23:18 Cloudy with Light Snow 0 -17.8 -8 -22.2 69 69 N 15 24 30.24 1024 3 4.82802 0 0.0254
11:41 pm 23:41 Cloudy 0 -17.8 -9 -22.8 65 65 N 20 31 30.27 1025 9 14.48406 0 0.0254
11:53 pm 23:53 Cloudy 0 -17.8 -9 -22.8 65 65 N 14 22 30.06 1018 10 16.0934 0 0.0254

Powered by AerisWeather